"TOA5","AWS1","CR1000","7964","CR1000.Std.14","CPU:AWS1_114.CR1","64363","TBL110"
"TIMESTAMP","RECORD","Wind_spd_WVc(1)","Wind_spd_WVc(2)","Air_Temp_Avg","Humidity_Avg","SW_upper_Wm2_Avg","Rain_Tot","Press_Avg","Issui_Tot","Depth_cm","SR50A_Raw","Quality","Ground_Temp_Avg(1)","Ground_Temp_Avg(2)","SW_lower_Wm2_Avg","Albedo_Avg","SWC_per(1)","SWC_per(2)","Period(1)","Period(2)"
"TS","RN","","","","","","","","","","","","","","","","","","",""
"","","WVc","WVc","Avg","Avg","Avg","Tot","Avg","Tot","Smp","Smp","Smp","Avg","Avg","Avg","Avg","Smp","Smp","Smp","Smp"
"2016-03-30 00:00:00",228877,0.252,82.8,2.828,37.01,0,0,869.5168,0,0.221,3.16,171,0.289,0.692,0.2236593,0,53.56,62.48,34.17,36.24
"2016-03-30 00:10:00",228878,0.636,139.3,2.908,38.03,0,0,869.2618,0,-0.335,3.169,171,0.289,0.704,0.2236593,0,53.56,62.42,34.17,36.23
"2016-03-30 00:20:00",228879,0.477,163.8,2.629,38.79,0,0,869.0743,0,0.573,3.156,174,0.289,0.705,0.1592151,0,53.56,62.42,34.17,36.23
"2016-03-30 00:30:00",228880,0.32,241.1,3.216,35.12,0,0,869.0849,0,0.447,3.157,174,0.289,0.718,0.2501952,0,53.5,62.48,34.15,36.24
"2016-03-30 00:40:00",228881,0.73,161.7,3.468,34.32,0,0,869.0154,0,-0.104,3.161,174,0.289,0.726,0.1250976,0,53.56,62.42,34.17,36.23
"2016-03-30 00:50:00",228882,0.436,311.8,3.24,35.94,0,0,869.2934,0,-0.032,3.164,170,0.295,0.727,0,0,53.5,62.42,34.15,36.23
"2016-03-30 01:00:00",228883,0.073,355.9,2.883,37.44,0,0,869.4684,0,0.019,3.162,170,0.292,0.689,0,0,53.5,62.36,34.15,36.21
"2016-03-30 01:10:00",228884,0.258,175.9,2.624,39.77,0,0,869.2829,0,0.191,3.165,174,0.292,0.692,0,0,53.5,62.36,34.15,36.21
"2016-03-30 01:20:00",228885,0.268,95.9,2.162,43.66,0,0,869.2682,0,0.039,3.168,171,0.289,0.691,0,0,53.5,62.36,34.15,36.21
"2016-03-30 01:30:00",228886,0.237,123.4,2.066,44.97,0,0,869.2513,0,-0.211,3.17,170,0.289,0.679,0,0,53.5,62.36,34.15,36.21
"2016-03-30 01:40:00",228887,0.554,140.3,1.68,48.07,0,0,869.0491,0,-0.237,3.173,170,0.295,0.679,0,0,53.45,62.36,34.14,36.21
"2016-03-30 01:50:00",228888,0.729,159.2,2.342,42.96,0,0,869.0469,0,0.096,3.161,174,0.305,0.679,0.5041813,0,53.45,62.3,34.14,36.2
"2016-03-30 02:00:00",228889,0.683,164.6,3.008,40.03,0,0,869.2112,0,0.044,3.162,179,0.295,0.681,0.2577769,0,53.45,62.3,34.14,36.2
"2016-03-30 02:10:00",228890,0.779,163.3,3.088,40.2,0,0,869.0828,0,0.297,3.159,174,0.29,0.678,0.02653586,0,53.45,62.3,34.14,36.2
"2016-03-30 02:20:00",228891,0.48,132.1,2.895,43.58,0,0,869.186,0,-0.209,3.167,183,0.29,0.682,0,0,53.39,62.24,34.13,36.19
"2016-03-30 02:30:00",228892,0.702,147.8,2.927,43.89,0,0,869.1713,0,0.345,3.16,187,0.29,0.679,0,0,53.45,62.24,34.14,36.19
"2016-03-30 02:40:00",228893,0.627,125.3,2.595,46.75,0,0,869.1417,0,-0.109,3.166,174,0.291,0.684,0,0,53.39,62.24,34.13,36.19
"2016-03-30 02:50:00",228894,0.756,147.5,2.547,46.97,0,0,869.0111,0,-0.11,3.167,174,0.295,0.682,0,0,53.39,62.24,34.13,36.19
"2016-03-30 03:00:00",228895,0.902,143.1,2.48,47.75,0,0,868.9711,0,-0.208,3.167,183,0.29,0.681,0,0,53.39,62.18,34.13,36.17
"2016-03-30 03:10:00",228896,1.081,153.5,2.569,48.23,0,0,869.0154,0,0.015,3.165,184,0.294,0.681,0,0,53.39,62.18,34.13,36.17
"2016-03-30 03:20:00",228897,1.174,152,2.614,48.95,0,0,869.0154,0,-0.115,3.166,175,0.294,0.683,0,0,53.33,62.18,34.11,36.17
"2016-03-30 03:30:00",228898,0.794,158.8,2.188,51.08,0,0,869.1481,0,0.425,3.164,192,0.31,0.699,0,0,53.33,62.12,34.11,36.16
"2016-03-30 03:40:00",228899,0.898,152.3,2.158,51.27,0,0,869.2366,0,0.097,3.166,179,0.322,0.71,0,0,53.33,62.12,34.11,36.16
"2016-03-30 03:50:00",228900,0.931,152.2,2.372,51.03,0,0,869.0764,0,0.174,3.164,174,0.322,0.711,0.01516535,0,53.33,62.12,34.11,36.16
"2016-03-30 04:00:00",228901,0.952,149.3,2.612,51,0,0,869.0237,0,-0.128,3.166,179,0.322,0.711,0,0,53.33,62.12,34.11,36.16
"2016-03-30 04:10:00",228902,0.838,147.1,2.674,51.31,0,0,869.0217,0,0.227,3.163,179,0.319,0.708,0,0,53.28,62.12,34.1,36.16
"2016-03-30 04:20:00",228903,0.865,139.7,2.687,51.62,0,0,869.1228,0,0.182,3.163,188,0.312,0.703,0,0,53.28,62.12,34.1,36.16
"2016-03-30 04:30:00",228904,0.59,160,2.756,51.44,0,0,869.2618,0,0.134,3.163,171,0.305,0.696,0,0,53.28,62.12,34.1,36.16
"2016-03-30 04:40:00",228905,0.42,140,2.654,51.69,0,0,869.2934,0,-0.089,3.167,188,0.302,0.689,0,0,53.28,62.12,34.1,36.16
"2016-03-30 04:50:00",228906,0.522,149.4,2.231,53.72,0,0,869.3349,0,0.138,3.167,187,0.297,0.683,0,0,53.28,62.12,34.1,36.16
"2016-03-30 05:00:00",228907,0.602,155.6,2.053,54.04,0,0,869.5008,0,-0.113,3.171,174,0.299,0.682,0,0,53.22,62.06,34.08,36.15
"2016-03-30 05:10:00",228908,0.644,145.4,1.86,54.45,0,0,869.5134,0,0.34,3.165,182,0.31,0.681,0,0,53.22,62.12,34.08,36.16
"2016-03-30 05:20:00",228909,0.784,155.5,2.213,50.88,0,0,869.4518,0,-0.314,3.17,170,0.299,0.682,0.06823613,0,53.22,62.06,34.08,36.15
"2016-03-30 05:30:00",228910,0.949,161.3,2.421,48.24,0,0,869.2852,0,0.112,3.165,179,0.298,0.685,0.03411843,0,53.22,62.06,34.08,36.15
"2016-03-30 05:40:00",228911,0.992,152.9,2.397,46.5,0,0,869.2999,0,-0.163,3.165,174,0.299,0.686,0.3563503,0,53.28,62.06,34.1,36.15
"2016-03-30 05:50:00",228912,0.817,160.6,2.312,46.96,2.107445,0,869.3408,0,0.436,3.162,179,0.3,0.689,1.766604,1.024,53.22,62.06,34.08,36.15
"2016-03-30 06:00:00",228913,0.741,153.4,2.458,46.46,12.75874,0,869.2762,0,-0.018,3.167,174,0.303,0.69,6.088373,0.493,53.28,62.06,34.1,36.15
"2016-03-30 06:10:00",228914,0.796,157.6,2.658,47.35,26.01739,0,869.2687,0,-0.221,3.166,187,0.308,0.696,11.39605,0.439,53.22,62.06,34.08,36.15
"2016-03-30 06:20:00",228915,0.793,154.8,2.849,49.36,38.54897,0,869.2641,0,0.031,3.163,178,0.311,0.703,16.49913,0.428,53.22,62.06,34.08,36.15
"2016-03-30 06:30:00",228916,0.858,160.4,3.076,49.36,53.39092,0,869.2409,0,-0.339,3.165,174,0.313,0.734,23.0232,0.432,53.22,62.06,34.08,36.15
"2016-03-30 06:40:00",228917,0.661,158.5,3.306,49.46,64.1332,0,869.2683,0,-0.016,3.16,170,0.352,0.724,26.69312,0.416,53.22,62,34.08,36.13
"2016-03-30 06:50:00",228918,0.662,154.9,3.576,49.11,73.26386,0,869.2683,0,0.009,3.16,174,0.347,0.741,30.74235,0.42,53.22,62,34.08,36.13
"2016-03-30 07:00:00",228919,0.515,159,3.732,49.22,93.29954,0,869.262,0,0.093,3.157,174,0.349,0.735,41.36067,0.443,53.22,62,34.08,36.13
"2016-03-30 07:10:00",228920,0.981,156.6,3.92,50.14,101.1874,0,869.2156,0,0.099,3.156,170,0.34,0.717,44.46407,0.439,53.22,61.94,34.08,36.12
"2016-03-30 07:20:00",228921,0.647,139.8,4.193,50.57,117.0891,0,869.2683,0,0.052,3.155,186,0.331,0.744,51.33987,0.439,53.16,61.94,34.07,36.12
"2016-03-30 07:30:00",228922,0.76,143.3,4.327,49.94,125.4823,0,869.2472,0,0.208,3.152,187,0.295,0.765,56.42302,0.449,53.22,61.94,34.08,36.12
"2016-03-30 07:40:00",228923,0.77,130.6,4.653,50.3,187.4995,0,869.2683,0,-0.043,3.153,174,0.287,0.764,69.14115,0.374,53.16,61.94,34.07,36.12
"2016-03-30 07:50:00",228924,0.673,140,4.924,49.17,344.4107,0,869.2557,0,-0.238,3.152,170,0.331,0.718,98.29266,0.286,53.16,61.94,34.07,36.12
"2016-03-30 08:00:00",228925,1.068,143.9,5.037,48.8,279.071,0,869.1208,0,0.034,3.152,172,0.335,0.693,96.02573,0.348,53.16,61.94,34.07,36.12
"2016-03-30 08:10:00",228926,0.638,136.1,4.886,50.59,183.2768,0,869.1638,0,-0.042,3.153,169,0.34,0.754,69.0615,0.377,53.16,61.94,34.07,36.12
"2016-03-30 08:20:00",228927,0.822,142.1,4.699,50.8,192.065,0,869.1987,0,0.163,3.152,173,0.345,0.762,72.02483,0.375,53.16,61.94,34.07,36.12
"2016-03-30 08:30:00",228928,0.657,128.9,4.747,50.31,213.614,0,869.1832,0,0.081,3.151,173,0.362,0.746,78.12749,0.368,53.16,61.94,34.07,36.12
"2016-03-30 08:40:00",228929,0.141,16.54,4.791,51.89,202.6147,0,869.1713,0,0.148,3.151,172,0.335,0.714,75.44521,0.374,53.16,61.88,34.07,36.11
"2016-03-30 08:50:00",228930,0.407,55.37,5.038,50.97,299.7204,0,868.9572,0,0.367,3.145,190,0.331,0.691,114.621,0.382,53.11,61.88,34.06,36.11
"2016-03-30 09:00:00",228931,0.451,123.8,5.618,48.83,278.4974,0,868.9232,0,0.223,3.145,172,0.336,0.661,111.8808,0.401,53.16,61.88,34.07,36.11
"2016-03-30 09:10:00",228932,0.628,142.4,5.72,48.41,328.1257,0,868.8958,0,0.455,3.141,186,0.333,0.725,127.2649,0.388,53.16,61.88,34.07,36.11
"2016-03-30 09:20:00",228933,0.774,139.2,6.26,46.17,325.7701,0,868.6809,0,0.128,3.144,189,0.315,0.764,128.2497,0.396,53.16,61.88,34.07,36.11
"2016-03-30 09:30:00",228934,0.817,144.9,5.97,44.87,347.5789,0,868.6703,0,0.406,3.141,190,0.298,0.763,129.4584,0.374,53.11,61.88,34.06,36.11
"2016-03-30 09:40:00",228935,0.833,132.7,6.176,42.73,367.2102,0,868.6489,0,0.593,3.139,178,0.247,0.757,140.5623,0.383,53.11,61.88,34.06,36.11
"2016-03-30 09:50:00",228936,0.573,100.6,6.681,42.37,360.2808,0,868.4349,0,0.303,3.136,173,0.215,0.731,138.5287,0.384,53.11,61.88,34.06,36.11
"2016-03-30 10:00:00",228937,0.608,138.7,7.426,40.66,391.4424,0,868.369,0,0.068,3.137,171,0.221,0.642,149.3319,0.383,53.11,61.82,34.06,36.09
"2016-03-30 10:10:00",228938,0.343,96.6,7.729,39.81,522.0251,0,868.3464,0,0.965,3.127,185,0.287,0.6,163.1617,0.314,53.05,61.82,34.04,36.09
"2016-03-30 10:20:00",228939,0.393,18.65,7.576,37.51,574.5202,0,868.2948,0,0.261,3.133,186,0.286,0.596,165.5938,0.289,53.05,61.82,34.04,36.09
"2016-03-30 10:30:00",228940,0.616,32.75,7.7,38.34,498.1447,0,868.1161,0,-0.067,3.136,191,0.269,0.597,169.5627,0.341,53.11,61.82,34.06,36.09
"2016-03-30 10:40:00",228941,0.418,349,7.648,37.86,485.3666,0,868.071,0,-0.403,3.141,185,0.258,0.63,165.5013,0.342,53.11,61.82,34.06,36.09
"2016-03-30 10:50:00",228942,0.869,351,7.374,37.21,588.0258,0,867.955,0,-0.381,3.142,191,0.268,0.622,192.8978,0.332,53.11,61.82,34.06,36.09
"2016-03-30 11:00:00",228943,0.55,340.1,7.711,39.66,736.425,0,867.8202,0,-0.261,3.137,192,0.251,0.62,224.8175,0.305,53.05,61.82,34.04,36.09
"2016-03-30 11:10:00",228944,0.876,341.5,7.709,39.8,690.3353,0,867.7717,0,-0.718,3.144,186,0.246,0.612,213.4899,0.309,53.05,61.82,34.04,36.09
"2016-03-30 11:20:00",228945,0.571,332,7.841,43.04,773.8282,0,867.6012,0,-1.209,3.146,188,0.248,0.608,244.9395,0.316,53.11,61.82,34.06,36.09
"2016-03-30 11:30:00",228946,0.512,327.9,8.09,43.87,516.248,0,867.5105,0,-1.675,3.153,196,0.242,0.602,165.6288,0.321,53.22,61.82,34.08,36.09
"2016-03-30 11:40:00",228947,0.457,337.5,7.121,48.22,271.9518,0,867.4742,0,-1.379,3.154,187,0.177,0.591,90.10764,0.332,53.28,61.82,34.1,36.09
"2016-03-30 11:50:00",228948,0.293,323.7,7.033,48.41,349.7487,0,867.2855,0,-1.879,3.157,184,0.165,0.593,120.654,0.342,53.39,61.88,34.13,36.11
"2016-03-30 12:00:00",228949,0.434,300.6,7.608,47.39,432.5069,0,867.2645,0,-1.52,3.151,192,0.167,0.581,143.5137,0.329,53.5,61.94,34.15,36.12
"2016-03-30 12:10:00",228950,0.307,33.32,7.809,46.42,245.4965,0,867.2811,0,-0.81,3.143,245,0.171,0.599,82.91185,0.337,53.61,61.94,34.18,36.12
"2016-03-30 12:20:00",228951,0.324,337.6,8.51,44.81,743.5421,0,867.2692,0,-1.264,3.141,185,0.171,0.582,258.9627,0.348,53.73,62.06,34.21,36.15
"2016-03-30 12:30:00",228952,0.514,306.6,8.63,44.22,403.3488,0,867.1543,0,-1.432,3.148,186,0.162,0.555,131.4784,0.316,53.73,62.06,34.21,36.15
"2016-03-30 12:40:00",228953,0.473,307.5,8.18,47.87,405.2834,0,867.181,0,-1.512,3.15,181,0.158,0.563,136.0935,0.333,53.84,62.12,34.23,36.16
"2016-03-30 12:50:00",228954,0.314,295,7.446,50.5,218.2621,0,867.084,0,-1.472,3.153,179,0.129,0.58,73.34425,0.336,53.95,62.24,34.26,36.19
"2016-03-30 13:00:00",228955,0.424,326,7.289,52.49,236.6359,0,867.0505,0,-1.325,3.153,211,0.118,0.593,80.66236,0.341,54.12,62.36,34.3,36.21
"2016-03-30 13:10:00",228956,0.233,331.6,7.08,53.13,167.5514,0,866.88,0,-1.602,3.155,204,0.144,0.6,55.89454,0.332,54.18,62.48,34.32,36.24
"2016-03-30 13:20:00",228957,0.276,2.937,7.177,53.07,83.91736,0,866.8052,0,-1.472,3.153,174,0.161,0.622,27.07051,0.321,54.24,62.6,34.33,36.27
"2016-03-30 13:30:00",228958,0.458,67.55,7.25,51.7,77.00301,0,866.6895,0,-1.779,3.157,170,0.161,0.565,25.54014,0.332,54.29,62.78,34.34,36.31
"2016-03-30 13:40:00",228959,0.237,41.46,7.27,51.67,152.6889,0,866.5668,0,-1.47,3.151,174,0.194,0.558,51.57741,0.339,54.29,62.84,34.34,36.32
"2016-03-30 13:50:00",228960,0.291,185.7,7.649,51.37,142.7595,0,866.5566,0,-1.435,3.152,188,0.19,0.593,48.1438,0.337,54.35,62.9,34.36,36.34
"2016-03-30 14:00:00",228961,0.105,16.04,7.558,51.68,107.3383,0,866.5357,0,-2.198,3.159,173,0.224,0.583,36.10811,0.336,54.35,62.96,34.36,36.35
"2016-03-30 14:10:00",228962,0.244,276.4,6.973,54.1,79.58355,0,866.5567,0,-1.757,3.159,189,0.239,0.587,26.39994,0.332,54.35,63.02,34.36,36.36
"2016-03-30 14:20:00",228963,0.338,251.7,6.817,56.08,166.1151,0,866.5546,0,-2.029,3.159,190,0.242,0.589,57.14173,0.344,54.35,63.08,34.36,36.38
"2016-03-30 14:30:00",228964,0.27,297.5,6.949,56.12,133.0692,0,866.5546,0,-1.859,3.16,193,0.243,0.589,45.08011,0.338,54.35,63.08,34.36,36.38
"2016-03-30 14:40:00",228965,0.286,273.2,6.72,57.64,86.94749,0,866.5567,0,-2.14,3.164,186,0.24,0.566,29.1089,0.332,54.35,63.14,34.36,36.39
"2016-03-30 14:50:00",228966,0.347,265.3,6.474,59.76,122.3748,0,866.5546,0,-1.812,3.161,176,0.237,0.561,42.04198,0.343,54.35,63.14,34.36,36.39
"2016-03-30 15:00:00",228967,0.313,247.7,6.709,59.28,134.5977,0,866.5041,0,-2.061,3.162,174,0.237,0.561,45.96282,0.341,54.29,63.14,34.34,36.39
"2016-03-30 15:10:00",228968,0.321,282.3,7.091,57.81,188.8328,0,866.3104,0,-2.407,3.162,187,0.243,0.553,62.42655,0.33,54.35,63.2,34.36,36.4
"2016-03-30 15:20:00",228969,0.36,250.4,7.06,58.54,85.85526,0,866.304,0,-1.859,3.16,189,0.243,0.552,28.32852,0.329,54.35,63.2,34.36,36.4
"2016-03-30 15:30:00",228970,0.291,347,6.714,60.07,79.34499,0,866.304,0,-2.34,3.165,191,0.236,0.575,26.58972,0.334,54.29,63.2,34.34,36.4
"2016-03-30 15:40:00",228971,0.392,279.2,6.294,61.36,62.03015,0,866.3146,0,-2.6,3.171,176,0.22,0.588,20.44897,0.328,54.35,63.26,34.36,36.42
"2016-03-30 15:50:00",228972,0.402,265.2,5.861,63.56,60.82789,0,866.3564,0,-3.234,3.179,191,0.178,0.588,20.4717,0.329,54.29,63.26,34.34,36.42
"2016-03-30 16:00:00",228973,0.34,257.1,5.932,63.82,149.5945,0,866.3088,0,-2.852,3.173,184,0.176,0.587,49.61469,0.331,54.29,63.26,34.34,36.42
"2016-03-30 16:10:00",228974,0.358,296.5,6.226,61.92,130.9884,0,866.325,0,-2.755,3.172,174,0.195,0.591,42.93267,0.328,54.35,63.26,34.36,36.42
"2016-03-30 16:20:00",228975,0.236,306.5,6.167,62.16,92.74377,0,866.1611,0,-2.714,3.172,175,0.186,0.602,30.24322,0.326,54.35,63.32,34.36,36.43
"2016-03-30 16:30:00",228976,0.229,335.7,6.071,62.37,81.23738,0,865.8699,0,-2.679,3.172,174,0.207,0.623,26.15741,0.32,54.29,63.32,34.34,36.43
"2016-03-30 16:40:00",228977,0.248,287.5,5.956,62.02,19.78238,0,865.8936,0,-2.537,3.171,179,0.202,0.644,5.615338,0.269,54.29,63.39,34.34,36.44
"2016-03-30 16:50:00",228978,0.094,307.5,5.769,63.14,11.54632,0,865.8849,0,-2.747,3.175,182,0.233,0.657,3.319394,0.284,54.29,63.39,34.34,36.44
"2016-03-30 17:00:00",228979,0.086,280.7,5.538,64.09,11.64089,0,865.9686,0,-2.854,3.176,187,0.232,0.663,3.584716,0.306,54.35,63.39,34.36,36.44
"2016-03-30 17:10:00",228980,0.092,284.8,5.62,63.38,8.709307,0,866.0741,0,-2.706,3.175,181,0.239,0.671,2.739774,0.313,54.35,63.45,34.36,36.46
"2016-03-30 17:20:00",228981,0.077,327.5,5.592,63.1,4.716303,0,866.1351,0,-2.858,3.176,193,0.243,0.675,1.330119,0.28,54.29,63.45,34.34,36.46
"2016-03-30 17:30:00",228982,0.033,269,5.568,63.65,3.910623,0,866.1278,0,-2.784,3.176,175,0.244,0.677,1.451391,0.469,54.29,63.45,34.34,36.46
"2016-03-30 17:40:00",228983,0.11,261.1,5.467,65.02,0.07860561,0,866.1365,0,-2.835,3.177,176,0.245,0.676,0.6707484,0.346,54.29,63.45,34.34,36.46
"2016-03-30 17:50:00",228984,0.254,235.3,5.263,67.95,0.06681481,0,866.1513,0,-2.811,3.178,194,0.245,0.69,0.3069528,0.402,54.24,63.45,34.33,36.46
"2016-03-30 18:00:00",228985,0.255,234.2,4.855,75.04,0,0,866.3198,0,-2.966,3.183,194,0.245,0.684,0.1743189,0,54.24,63.45,34.33,36.46
"2016-03-30 18:10:00",228986,0.379,211.9,4.459,80.9,0,0,866.4525,0,-3.119,3.186,199,0.245,0.64,0.1326339,0,54.24,63.45,34.33,36.46
"2016-03-30 18:20:00",228987,0.219,184.1,4.288,84.4,0,0,866.5746,0,-2.943,3.185,194,0.245,0.638,0.140213,0,54.24,63.45,34.33,36.46
"2016-03-30 18:30:00",228988,0.094,327.1,4,91.3,0,0,866.5894,0,-3.019,3.188,194,0.245,0.661,0.1629503,0,54.24,63.45,34.33,36.46
"2016-03-30 18:40:00",228989,0,0,3.736,99.9,0,0,866.6125,0,-2.92,3.188,189,0.264,0.669,0,0,54.18,63.45,34.32,36.46
"2016-03-30 18:50:00",228990,0,0,3.659,100,0,0,866.4462,0,-3.524,3.194,189,0.264,0.669,0,0,54.24,63.45,34.33,36.46
"2016-03-30 19:00:00",228991,0.285,158.8,3.599,100,0,0,866.4209,0,-3.524,3.195,191,0.277,0.656,0,0,54.29,63.45,34.34,36.46
"2016-03-30 19:10:00",228992,0.413,70.47,3.571,100,0,0,866.3998,0,-3.272,3.192,174,0.258,0.656,0,0,54.24,63.45,34.33,36.46
"2016-03-30 19:20:00",228993,0.156,293.1,3.484,100,0,0,866.6399,0,-3.574,3.196,178,0.246,0.643,0.007579082,0,54.24,63.45,34.33,36.46
"2016-03-30 19:30:00",228994,0.055,241.8,3.411,100,0,0,866.821,0,-3.324,3.193,187,0.246,0.632,0,0,54.24,63.45,34.33,36.46
"2016-03-30 19:40:00",228995,0.51,286.3,3.295,100,0,0,867.038,0,-3.18,3.194,180,0.25,0.611,0.007579441,0,54.24,63.45,34.33,36.46
"2016-03-30 19:50:00",228996,0.809,281.6,3.006,100,0,0,867.2634,1,-3.688,3.199,186,0.263,0.615,0,0,54.35,63.51,34.36,36.47
"2016-03-30 20:00:00",228997,0.512,250,2.916,100,0,0,867.4023,0.5,-3.45,3.198,192,0.279,0.628,0,0,54.58,63.57,34.41,36.49
"2016-03-30 20:10:00",228998,0.654,260.4,2.748,100,0,0,867.415,0,-3.359,3.198,180,0.297,0.649,0,0,54.75,63.87,34.45,36.55
"2016-03-30 20:20:00",228999,0.478,305.7,2.631,100,0,0,867.5611,0,-3.318,3.197,182,0.3,0.678,0.05686025,0,54.75,64.18,34.45,36.62
"2016-03-30 20:30:00",229000,0.751,297.2,2.738,100,0,0,867.7125,0,-3.347,3.198,184,0.271,0.721,0.2918884,0,54.8,64.54,34.46,36.7
"2016-03-30 20:40:00",229001,0.708,303.7,2.637,95,0.04717933,0,867.778,0,-3.474,3.2,188,0.254,0.748,0.4245707,0.354,54.8,64.91,34.46,36.78
"2016-03-30 20:50:00",229002,0.817,274.1,2.488,89.3,0.5976064,0,867.9572,0,-3.172,3.198,179,0.246,0.759,0.3639197,0.516,54.75,65.46,34.45,36.91
"2016-03-30 21:00:00",229003,0.483,268.9,2.386,84.6,0.2398291,0,867.871,0,-3.349,3.199,191,0.257,0.753,0.6596053,0.513,54.75,65.83,34.45,36.99
"2016-03-30 21:10:00",229004,0.893,177.5,2.089,96.2,0,0,867.8049,0,-3.072,3.199,186,0.284,0.711,0.4890179,0,54.75,66.08,34.45,37.04
"2016-03-30 21:20:00",229005,1.011,171.3,2.04,100,0,0,867.7989,0,-3.097,3.199,178,0.289,0.679,0.4511095,0,54.69,66.08,34.44,37.04
"2016-03-30 21:30:00",229006,1.103,193.8,1.974,98.2,0,0,867.9301,0,-3.322,3.202,177,0.289,0.678,0.4359462,0,54.69,65.89,34.44,37
"2016-03-30 21:40:00",229007,0.682,249.6,1.978,87.3,0.2044446,0,868.004,0,-3.472,3.203,178,0.289,0.678,0.625488,0.634,54.69,65.77,34.44,36.97
"2016-03-30 21:50:00",229008,0.567,209,1.732,89.2,0,0,868.004,0,-3.095,3.201,186,0.29,0.678,0.4056195,0,54.63,65.52,34.42,36.92
"2016-03-30 22:00:00",229009,0.82,202.6,1.552,86.5,0,0,867.9977,0,-2.993,3.203,178,0.302,0.678,0.4511095,0,54.63,65.28,34.42,36.87
"2016-03-30 22:10:00",229010,0.546,162.8,1.108,87.9,0,0,868.004,0,-3.117,3.206,190,0.328,0.678,0.3222211,0,54.58,65.09,34.41,36.82
"2016-03-30 22:20:00",229011,0.521,155.9,0.756,88.3,0,0,868.0082,0,-2.464,3.201,190,0.331,0.676,0.4094103,0,54.58,64.91,34.41,36.78
"2016-03-30 22:30:00",229012,0.322,163.1,1.278,67.08,0,0,867.9008,0,-2.694,3.197,190,0.327,0.694,1.641432,0,54.52,64.79,34.4,36.76
"2016-03-30 22:40:00",229013,0.306,73.3,1.113,64.73,0,0,867.7575,0,-2.518,3.197,189,0.326,0.708,1.353329,0,54.52,64.66,34.4,36.73
"2016-03-30 22:50:00",229014,0.456,272.7,1.899,49.05,0,0,867.6606,0,-3.222,3.2,186,0.311,0.717,2.604305,0,54.46,64.48,34.38,36.69
"2016-03-30 23:00:00",229015,0.463,189.3,2.045,44.15,0,0,867.6332,0,-4.077,3.208,190,0.322,0.713,2.213849,0,54.41,64.42,34.37,36.68
"2016-03-30 23:10:00",229016,0.517,76.44,1.748,47.85,0,0,867.5953,0.5,-2.948,3.2,172,0.321,0.714,1.664198,0,54.46,64.3,34.38,36.65
"2016-03-30 23:20:00",229017,0.261,94.8,1.549,45.89,0,0,867.6376,0,-3.01,3.199,187,0.335,0.698,1.573287,0,54.41,64.24,34.37,36.63
"2016-03-30 23:30:00",229018,0.212,136.5,1.714,41.75,0,0,867.76,0,-3.3,3.201,183,0.35,0.715,2.005641,0,54.41,64.18,34.37,36.62
"2016-03-30 23:40:00",229019,0.258,172.3,1.733,41.93,0,0,867.7585,0,-3.104,3.203,190,0.378,0.729,2.017135,0,54.35,64.12,34.36,36.61
"2016-03-30 23:50:00",229020,0.32,127.1,1.397,43.17,0,0,867.7409,0,-2.732,3.203,179,0.365,0.744,1.421925,0,54.35,64.12,34.36,36.61
